SCP
-0 -0 -0 0 -0 0 -0 -0 -0 -0 0 0 0 0 0 0 0 0 0 -0 -0 -0 0 0 0 -0 -0 -0 -0 -0 -0 -0 -0 -0 -0 -0 -0 -0 -0 -0 -0 0 0 0 0 -0 -0 -0 -0
0 0 0 0 0 0 -0 -0 -0 -0 -0 0 0 0 0 0 0 0 0 -0 -0 -0 0 0 0 -0 -0 -0 -0 -0 -0 -0 -0 -0 -0 -0 -0 -0 -0 -0 -0 0 0 0 -0 -0 -0 -0 0
0 0 0 0 0 0 -0 -0 -0 -0 -0 -0 -0 0 0 0 0 -0 -0 -0 -0 -0 -0 -0 -0 -0 -0 -0 0 -0 -0 -0 -0 -0 -0 -0 -0 -0 -0 -0 0 0 0 -0 -0 -0 -0 0 0
0 0 0 0 0 0 0 -0 -0 0 -0 0 0 -0 0 0 0 0 -0 -0 -0 -0 -0 -0 -0 -0 -0 -0 -0 -0 -0 -0 -0 -0 -0 -0 -0 -0 -0 -0 0 0 -0 -0 -0 -0 -0 0 0
0 0 0 0 0 0 -0 -0 0 0 0 -0 0 -0 -0 0 0 -0 -0 -0 -0 -0 -0 -0 -0 -0 -0 -0 -0 -0 -0 -0 -0 -0 -0 -0 -0 -0 -0 -0 -0 0 -0 -0 -0 -0 -0 -0 0
0 0 0 0 0 0 0 -0 0 0 -0 -0 0 0 0 0 0 0 -0 -0 -0 -0 -0 -0 -0 -0 -0 -0 -0 -0 -0 -0 -0 -0 -0 -0 -0 0 -0 -0 -0 0 -0 -0 -0 -0 -0 -0 0
0 0 0 0 0 0 0 0 0 0 0 -0 0 0 0 0 0 0 0 0 -0 -0 -0 0 0 -0 -0 -0 -0 -0 -0 -0 -0 -0 -0 -0 0 -0 -0 0 -0 -0 -0 -0 -0 -0 -0 -0 -0
0 0 0 0 0 0 0 0 0 0 -0 0 0 -0 -0 0 0 0 0 0 0 -0 -0 0 0 0 0 0 -0 -0 -0 -0 -0 -0 -0 -0 -0 -0 0 -0 0 -0 -0 -0 -0 -0 0 -0 -0
0 0 0 0 0 0 0 0 0 0 0 0 0 0 0 0 0 0 0 0 0 0 -0 -0 0 0 0 0 0 -0 -0 0 0 -0 -0 0 0 0 0 0 -0 -0 -0 -0 0 0 0 0 0
0 0 0 0 0 0 0 0 0 0 0 0 0 0 0 0 0 0 0 0 0 0 0 -0 -0 0 0 0 0 0 0 0 0 0 0 0 0 0 0 0 -0 0 0 0 0 0 0 0 0
0 0 0 0 0 0 0 0 0 0 0 0 0 0 0 0 0 0 0 0 0 0 0 0 0 0 0 0 0 0 0 0 0 0 0 0 0 0 0 0 0 0 0 0 0 0 0 0 0
0 0 0 0 0 0 0 0 0 0 0 0 0 0 0 0 0 0 0 0 0 0 0 0 0 0 0 0 0 0 0 0 0 0 0 0 0 0 0 0 0 0 0 0 0 0 0 0 0
0 0 0 0 0 0 0 0 0 0 0 0 0 0 0 0 0 0 0 0 0 0 0 0 0 0 0 0 0 0 0 0 0 0 0 0 0 0 0 0 0 0 0 0 0 0 0 0 0
0 0 0 0 0 0 0 0 0 0 0 0 0 0 0 0 0 0 0 0 0 0 0 0 0 0 0 0 0 0 0 0 0 0 0 0 0 0 0 0 0 0 0 0 0 0 0 0 0
0 0 0 0 0 0 0 0 0 0 0 0 0 0 0 0 0 0 0 0 0 0 0 0 0 0 0 0 0 0 0 0 0 0 0 0 0 0 0 0 0 0 0 0 0 0 0 0 0
0 0 0 0 0 0 0 0 0 0 0 0 0 0 0 0 0 0 0 0 0 0 0 0 0 0 0 0 0 0 0 0 0 0 0 0 0 0 0 0 0 0 0 0 0 0 0 0 0
0 0 0 0 0 0 0 0 0 0 0 0 0 0 0 0 0 0 0 0 0 0 0 0 0 0 0 0 0 0 0 0 0 0 0 0 0 0 0 0 0 0 0 0 0 0 0 0 0
0 0 0 0 0 0 0 0 0 0 0 0 0 0 0 0 0 0 0 0 0 0 0 0 0 0 0 0 0 0 0 0 0 0 0 0 0 0 0 0 0 0 0 0 0 0 0 0 0
0 0 0 0 0 0 0 0 0 0 0 0 0 0 0 0 0 0 0 0 0 0 0 0 0 0 0 0 0 0 0 0 0 0 0 0 0 0 0 0 0 0 0 0 0 0 0 0 0
0 0 0 0 0 0 0 0 0 0 0 0 0 0 0 0 0 0 0 0 0 0 0 0 0 0 0 0 0 0 0 0 0 0 0 0 0 0 0 0 0 0 0 0 0 0 0 0 0
0 0 0 0 0 0 0 0 0 0 0 0 0 0 0 0 0 0 0 0 0 0 0 0 0 0 0 0 0 0 0 0 0 0 0 0 0 0 0 0 0 0 0 0 0 0 0 0 0
0 0 0 0 0 0 0 0 0 0 0 0 0 0 0 0 0 0 0 0 0 0 0 0 0 0 0 0 0 0 0 0 0 0 0 0 0 0 0 0 0 0 0 0 0 0 0 0 0
0 0 0 0 0 0 0 0 0 0 0 0 0 0 0 0 0 0 0 0 0 0 0 0 0 0 0 0 0 0 0 0 0 0 0 0 0 0 0 0 0 0 0 0 0 0 0 0 0
0 0 0 0 0 0 0 0 0 0 0 0 0 0 0 0 0 0 0 0 0 0 0 0 0 0 0 0 0 0 0 0 0 0 0 0 0 0 0 0 0 0 0 0 0 0 0 0 0
0 0 0 0 0 0 0 0 0 0 0 0 0 0 0 0 0 0 0 0 0 0 0 0 0 0 0 0 0 0 0 0 0 0 0 0 0 0 0 0 0 0 0 0 0 0 0 0 0
0 0 0 0 0 0 0 0 0 0 0 0 0 0 -0 0 0 0 0 0 0 0 0 0 0 0 0 0 0 0 0 0 0 0 0 0 0 0 0 0 0 0 0 0 0 0 0 0 0
0 0 0 0 0 0 0 0 0 0 0 0 0 0 0 0 0 0 0 0 0 0 0 0 0 0 0 0 0 0 0 0 0 0 0 0 0 0 0 0 0 0 0 0 0 0 0 0 0
0 0 0 0 0 0 0 0 0 0 0 0 0 0 0 0 0 0 0 0 0 0 0 0 0 0 0 0 0 0 0 0 0 0 0 0 0 0 0 0 0 0 0 0 0 0 0 0 0
0 0 0 0 0 0 0 0 0 0 0 0 0 0 0 0 0 0 0 0 0 0 0 0 0 0 0 0 0 0 0 0 0 0 0 0 0 0 0 0 0 0 0 0 0 0 0 0 0
0 0 0 0 0 0 0 0 0 0 0 0 0 0 0 0 0 0 0 0 0 0 0 0 0 0 0 0 0 0 0 0 0 0 0 0 0 0 0 0 0 0 0 0 0 0 0 0 0
Wind_Speed_500mb
35 30 30 7 9 10 2 3 2 4 5 5 9 13 16 9 2 5 25 30 21 29 27 28 27 23 18 15 9 7 8 7 6 19 25 19 16 20 21 19 23 25 24 26 27 28 29 31 28
36 26 12 6 9 7 6 1 10 6 6 9 20 25 8 3 7 18 37 25 26 30 30 30 28 25 14 9 5 8 8 7 5 17 26 13 18 15 18 17 22 24 24 25 27 27 30 28 27
29 19 9 8 6 7 8 6 9 13 13 4 5 12 6 9 14 29 23 35 26 32 31 30 28 23 16 10 8 6 6 5 5 14 25 14 21 11 15 18 18 23 23 24 24 27 27 25 27
31 13 7 8 6 3 11 12 13 10 10 11 12 10 5 7 25 21 30 30 31 35 31 28 27 24 19 13 9 3 3 3 6 17 26 16 26 14 16 16 17 20 21 22 22 26 24 23 25
21 11 8 6 1 4 3 23 23 8 9 11 9 9 7 19 13 19 30 33 32 37 33 28 26 24 19 15 12 4 2 3 6 19 22 17 26 18 17 19 19 19 20 19 22 22 21 20 22
7 6 8 4 9 1 3 22 18 12 16 13 13 19 14 19 23 26 33 34 31 35 33 29 27 25 21 19 15 8 6 5 10 15 26 23 19 23 13 17 20 17 17 20 21 20 18 17 18
10 8 5 3 7 2 3 17 14 16 14 8 18 10 10 24 22 35 37 34 32 29 26 28 28 26 25 24 19 14 9 6 14 18 17 19 22 20 19 14 17 17 16 18 19 18 16 14 14
7 9 5 4 1 6 4 3 11 23 12 17 11 11 12 33 32 44 39 37 35 33 29 27 29 28 28 29 25 21 16 13 14 24 22 17 15 12 12 15 16 20 17 16 17 16 14 12 11
7 7 8 10 9 3 12 3 1 8 17 12 11 9 11 27 39 52 47 45 42 40 36 31 31 31 30 29 30 27 23 20 17 23 25 22 18 15 14 15 16 18 18 17 16 15 14 13 12
8 7 17 13 15 9 1 7 6 4 7 6 8 10 13 30 41 56 58 56 53 49 44 37 33 32 33 33 32 31 30 27 24 23 29 26 22 19 18 17 16 17 18 19 18 17 16 14 13
9 10 10 5 4 5 2 5 2 2 2 3 7 17 21 33 40 46 54 55 49 45 45 42 38 34 32 36 35 36 34 32 31 24 30 30 27 25 22 20 19 19 20 20 19 20 18 16 16
6 18 11 6 3 3 5 6 6 10 9 8 16 11 28 37 41 46 52 55 55 54 47 44 43 41 36 33 36 33 39 36 37 30 30 31 29 30 27 23 22 23 23 23 23 23 22 20 18
8 10 25 27 17 7 10 14 13 23 24 18 21 18 28 40 45 45 48 52 55 60 56 50 48 48 44 41 38 36 35 41 39 38 38 38 36 31 30 28 28 26 28 27 27 27 26 23 22
5 29 30 23 22 14 12 17 9 18 14 24 27 30 26 39 42 51 51 55 64 66 64 56 54 52 51 50 44 40 38 38 43 45 45 44 40 36 34 32 31 31 31 30 31 31 28 27 28
35 8 14 14 11 11 12 11 19 42 28 40 39 41 44 46 42 62 62 58 60 67 67 64 60 56 57 56 52 48 44 43 46 45 46 49 46 42 39 38 37 35 35 34 35 35 33 32 31
11 6 10 6 18 12 11 20 18 29 24 33 37 45 53 47 53 58 62 65 58 64 70 70 68 66 62 62 59 56 52 49 49 48 47 49 48 46 46 46 43 38 39 39 39 37 36 36 35
6 6 12 11 16 9 15 13 21 47 54 57 59 42 36 35 39 48 60 68 66 63 68 75 76 74 71 65 64 61 57 56 54 52 52 52 50 49 49 50 47 43 44 44 42 41 41 40 38
11 11 11 20 11 14 18 32 22 38 37 46 49 51 52 51 50 42 47 65 73 68 62 70 74 80 78 73 69 65 64 63 61 60 58 56 55 52 51 50 51 51 52 50 48 46 45 43 40
20 10 20 7 11 8 14 25 28 45 53 57 70 72 60 54 53 51 45 42 65 75 67 64 70 75 77 83 83 78 77 73 72 69 66 63 61 59 54 55 57 57 59 56 53 50 49 49 44
17 21 17 7 12 16 21 37 24 30 42 54 64 62 53 58 66 64 55 49 48 70 75 71 67 68 78 83 90 85 81 80 76 73 74 70 70 66 62 61 62 60 63 64 60 59 58 55 50
33 42 11 9 3 8 8 19 14 18 37 46 42 48 58 68 75 70 63 59 56 58 78 78 67 66 71 79 90 91 88 87 84 86 83 80 77 74 71 68 68 66 67 70 67 65 65 63 57
40 18 15 13 9 13 6 12 10 10 21 19 34 46 65 61 64 56 58 71 67 65 69 82 72 70 69 70 83 91 93 94 89 88 87 86 83 82 78 76 75 73 71 75 72 70 71 68 68
26 23 22 9 11 3 10 5 13 8 16 18 23 51 63 50 42 43 45 54 71 71 61 80 82 75 70 71 77 85 91 92 92 90 89 92 91 89 85 82 81 80 79 78 76 77 76 76 74
15 11 6 6 10 20 39 14 24 20 14 12 24 48 47 25 8 34 31 28 37 50 62 62 80 84 79 74 77 84 87 89 91 93 93 92 93 92 91 91 89 85 85 82 80 81 81 79 80
19 24 9 17 17 19 13 15 36 19 12 14 28 39 26 23 36 20 18 29 17 26 42 52 63 73 78 83 82 83 85 89 91 91 94 95 96 94 94 91 92 92 91 87 86 88 87 87 88
43 32 11 16 12 11 14 14 18 21 46 64 60 37 29 13 33 38 39 40 40 32 27 17 53 68 76 85 87 88 90 94 96 96 100 102 103 98 97 96 93 93 97 97 94 94 93 92 94
11 31 19 9 6 6 8 11 20 17 17 6 17 35 28 32 33 41 38 40 39 34 39 36 26 22 40 57 69 82 86 93 100 99 102 103 105 107 104 100 99 96 93 93 96 98 97 97 95
18 17 15 7 7 7 8 6 14 2 11 14 14 22 27 27 28 32 38 39 37 38 34 21 23 22 21 24 36 47 59 70 80 91 100 100 106 106 104 103 103 102 99 94 95 99 101 103 100
15 13 10 10 9 10 6 12 15 15 14 19 14 19 25 27 29 32 38 32 35 34 29 32 27 20 21 24 29 34 42 52 61 74 88 91 93 96 103 104 104 104 102 102 99 98 101 106 103
23 19 14 12 13 5 3 11 11 18 23 30 23 25 21 27 29 36 34 36 38 37 32 31 28 25 24 25 31 37 45 49 52 61 74 81 91 98 102 102 105 106 106 103 105 105 103 106 109
Wind_Direction_500mb
348 340 336 20 59 62 32 55 57 82 28 62 61 81 115 66 108 184 142 160 180 171 162 159 154 159 163 142 132 108 83 72 107 115 98 94 99 94 92 99 113 106 111 111 111 107 103 100 92
347 340 358 26 87 82 293 295 115 119 117 99 83 120 49 103 139 155 156 167 174 175 171 166 165 169 172 151 111 80 60 59 93 130 115 128 120 99 101 104 109 116 118 118 113 112 109 101 91
346 336 6 86 111 147 171 202 180 136 100 94 89 87 100 141 173 167 166 164 175 176 175 174 176 177 178 166 144 104 64 62 134 137 129 154 127 137 119 113 123 123 126 123 120 117 109 105 104
345 345 49 81 96 9 170 180 169 131 108 98 114 61 79 199 160 180 168 177 178 179 178 183 183 187 190 180 169 144 16 50 141 153 137 152 132 137 132 131 135 133 129 128 123 119 116 113 109
350 356 24 64 84 141 196 170 153 130 131 122 136 165 125 153 171 184 188 188 183 181 186 188 192 195 197 192 188 191 326 324 172 154 147 153 163 142 147 151 148 148 143 135 126 130 126 119 116
70 49 34 18 345 67 171 173 144 149 159 149 123 140 161 192 194 194 194 190 186 182 181 193 201 205 201 198 196 208 234 219 191 180 160 164 153 148 153 157 153 157 150 142 143 138 135 133 125
115 95 194 273 295 191 215 149 165 176 165 191 147 123 180 186 193 191 194 196 189 191 195 198 204 207 205 199 200 212 224 233 200 187 192 179 169 171 174 163 161 165 170 149 149 150 148 140 134
134 99 162 174 280 271 272 172 136 173 192 155 180 175 196 195 184 185 194 201 206 206 207 211 208 211 211 206 207 216 218 232 216 200 193 197 197 176 178 185 176 176 173 164 162 160 164 156 155
157 77 186 208 164 317 318 308 280 128 150 168 196 231 262 186 176 185 195 204 213 216 215 214 214 212 214 215 215 218 223 224 222 213 202 197 195 191 190 194 200 189 184 180 177 181 183 185 182
158 154 214 204 161 165 142 248 226 207 144 196 212 233 229 190 184 191 199 208 213 219 214 217 218 216 215 217 222 226 223 226 226 221 212 203 202 201 203 205 206 201 192 192 193 198 205 208 211
193 203 205 245 149 330 96 156 97 1 273 215 29 270 227 201 202 206 209 218 224 223 224 222 221 217 220 222 222 225 227 226 227 223 214 213 210 211 210 214 211 211 209 209 210 213 219 223 230
187 240 202 195 127 186 226 180 260 189 200 260 310 301 236 222 222 224 220 222 223 225 231 232 228 225 224 222 225 226 226 227 226 221 218 219 220 220 219 222 224 222 220 218 220 225 229 234 242
222 238 240 250 253 226 216 233 230 253 248 248 264 270 236 241 242 241 236 230 228 227 234 236 237 234 231 226 227 226 227 229 232 227 223 233 231 227 226 227 230 231 231 227 227 231 238 243 251
249 222 243 253 254 251 208 257 202 243 231 266 264 262 262 249 252 249 237 234 229 232 235 239 239 241 237 238 233 233 232 235 233 232 230 235 237 235 234 234 234 234 236 233 236 238 241 246 251
246 285 283 249 237 225 220 279 234 262 261 271 270 270 267 259 259 255 257 247 236 237 238 238 240 237 238 238 240 238 237 237 235 238 233 233 238 240 242 241 238 240 241 238 239 240 243 247 253
180 176 244 264 205 232 155 261 242 255 254 254 263 275 283 264 264 270 254 250 251 243 240 240 240 238 239 239 236 237 237 238 237 238 238 240 242 242 244 246 244 242 241 242 243 245 248 251 255
244 194 213 293 219 195 190 265 241 248 251 255 264 260 283 284 275 262 260 255 253 252 244 241 240 241 242 243 240 239 239 241 243 241 241 244 246 246 247 249 248 246 247 246 248 248 251 254 257
205 200 221 213 233 210 243 257 260 257 257 253 256 263 275 279 279 284 269 263 256 252 249 243 241 244 245 245 244 241 240 241 243 244 245 246 247 248 248 252 251 246 246 246 247 249 250 255 259
200 224 217 207 244 252 245 259 263 267 261 256 260 264 266 274 277 277 278 275 256 249 248 245 244 242 242 241 240 238 238 238 239 242 246 247 249 249 249 251 251 248 248 249 251 252 253 253 256
212 221 223 254 229 198 256 264 260 252 258 252 257 259 261 273 282 280 271 269 264 253 250 246 246 247 245 247 246 244 245 244 245 247 248 249 249 251 250 250 253 251 251 251 249 250 252 254 252
220 224 168 192 302 265 285 280 240 253 252 253 246 256 269 277 282 274 267 269 265 258 248 248 250 251 250 247 244 246 247 248 247 245 247 247 249 251 251 251 252 251 251 252 251 251 252 255 255
221 194 180 194 182 243 142 276 257 252 263 261 255 266 273 278 285 286 271 261 263 262 255 249 250 250 253 249 242 243 244 247 250 249 250 251 251 252 252 253 253 253 252 252 253 253 252 252 255
226 178 200 175 210 152 250 272 283 303 269 273 275 264 271 284 291 302 289 274 261 259 259 251 251 252 256 254 248 247 248 253 257 259 259 259 258 256 256 255 255 254 253 252 252 253 251 251 253
148 106 107 141 168 232 237 193 259 253 216 232 251 265 280 291 322 331 337 301 276 262 262 258 251 255 255 257 256 252 255 255 257 261 263 264 263 262 258 256 255 256 255 254 253 253 254 253 253
187 154 185 217 223 240 169 183 244 249 223 228 237 258 291 302 323 315 340 17 349 288 273 263 259 257 260 257 258 258 261 260 260 264 265 266 266 266 265 262 258 256 257 256 255 254 254 255 254
200 193 176 193 199 217 140 211 242 238 243 254 254 275 296 100 85 79 69 61 51 42 32 296 264 261 259 256 259 263 262 263 266 267 267 270 271 271 272 272 268 265 262 260 258 257 257 256 256
184 209 191 97 16 85 204 283 308 248 268 113 122 121 100 86 73 72 60 36 25 30 29 29 14 317 277 272 271 268 271 271 271 274 272 273 274 276 276 274 273 270 267 263 261 259 259 258 257
180 162 200 190 163 228 223 248 233 283 150 147 137 119 101 85 66 50 31 22 23 21 22 9 5 13 0 323 296 289 288 285 285 280 274 276 277 277 277 277 277 275 272 268 265 263 261 259 259
164 192 189 158 177 187 195 240 216 200 175 160 154 113 87 56 38 29 22 29 19 15 9 9 2 339 314 313 311 310 303 301 295 286 282 280 281 279 277 278 277 276 274 272 268 265 263 261 260
209 192 172 191 207 211 123 269 222 218 156 141 130 115 53 35 25 12 17 12 7 0 3 5 2 359 349 321 305 299 306 304 303 296 286 284 282 282 280 279 276 276 276 274 271 267 263 261 260
Wind_Speed_850mb
35 30 30 7 9 10 2 3 2 4 5 5 9 13 16 9 2 5 25 30 21 29 27 28 27 23 18 15 9 7 8 7 6 19 25 19 16 20 21 19 23 25 24 26 27 28 29 31 28
36 26 12 6 9 7 6 1 10 6 6 9 20 25 8 3 7 18 37 25 26 30 30 30 28 25 14 9 5 8 8 7 5 17 26 13 18 15 18 17 22 24 24 25 27 27 30 28 27
29 19 9 8 6 7 8 6 9 13 13 4 5 12 6 9 14 29 23 35 26 32 31 30 28 23 16 10 8 6 6 5 5 14 25 14 21 11 15 18 18 23 23 24 24 27 27 25 27
31 13 7 8 6 3 11 12 13 10 10 11 12 10 5 7 25 21 30 30 31 35 31 28 27 24 19 13 9 3 3 3 6 17 26 16 26 14 16 16 17 20 21 22 22 26 24 23 25
21 11 8 6 1 4 3 23 23 8 9 11 9 9 7 19 13 19 30 33 32 37 33 28 26 24 19 15 12 4 2 3 6 19 22 17 26 18 17 19 19 19 20 19 22 22 21 20 22
7 6 8 4 9 1 3 22 18 12 16 13 13 19 14 19 23 26 33 34 31 35 33 29 27 25 21 19 15 8 6 5 10 15 26 23 19 23 13 17 20 17 17 20 21 20 18 17 18
10 8 5 3 7 2 3 17 14 16 14 8 18 10 10 24 22 35 37 34 32 29 26 28 28 26 25 24 19 14 9 6 14 18 17 19 22 20 19 14 17 17 16 18 19 18 16 14 14
7 9 5 4 1 6 4 3 11 23 12 17 11 11 12 33 32 44 39 37 35 33 29 27 29 28 28 29 25 21 16 13 14 24 22 17 15 12 12 15 16 20 17 16 17 16 14 12 11
7 7 8 10 9 3 12 3 1 8 17 12 11 9 11 27 39 52 47 45 42 40 36 31 31 31 30 29 30 27 23 20 17 23 25 22 18 15 14 15 16 18 18 17 16 15 14 13 12
8 7 17 13 15 9 1 7 6 4 7 6 8 10 13 30 41 56 58 56 53 49 44 37 33 32 33 33 32 31 30 27 24 23 29 26 22 19 18 17 16 17 18 19 18 17 16 14 13
9 10 10 5 4 5 2 5 2 2 2 3 7 17 21 33 40 46 54 55 49 45 45 42 38 34 32 36 35 36 34 32 31 24 30 30 27 25 22 20 19 19 20 20 19 20 18 16 16
6 18 11 6 3 3 5 6 6 10 9 8 16 11 28 37 41 46 52 55 55 54 47 44 43 41 36 33 36 33 39 36 37 30 30 31 29 30 27 23 22 23 23 23 23 23 22 20 18
8 10 25 27 17 7 10 14 13 23 24 18 21 18 28 40 45 45 48 52 55 60 56 50 48 48 44 41 38 36 35 41 39 38 38 38 36 31 30 28 28 26 28 27 27 27 26 23 22
5 29 30 23 22 14 12 17 9 18 14 24 27 30 26 39 42 51 51 55 64 66 64 56 54 52 51 50 44 40 38 38 43 45 45 44 40 36 34 32 31 31 31 30 31 31 28 27 28
35 8 14 14 11 11 12 11 19 42 28 40 39 41 44 46 42 62 62 58 60 67 67 64 60 56 57 56 52 48 44 43 46 45 46 49 46 42 39 38 37 35 35 34 35 35 33 32 31
11 6 10 6 18 12 11 20 18 29 24 33 37 45 53 47 53 58 62 65 58 64 70 70 68 66 62 62 59 56 52 49 49 48 47 49 48 46 46 46 43 38 39 39 39 37 36 36 35
6 6 12 11 16 9 15 13 21 47 54 57 59 42 36 35 39 48 60 68 66 63 68 75 76 74 71 65 64 61 57 56 54 52 52 52 50 49 49 50 47 43 44 44 42 41 41 40 38
11 11 11 20 11 14 18 32 22 38 37 46 49 51 52 51 50 42 47 65 73 68 62 70 74 80 78 73 69 65 64 63 61 60 58 56 55 52 51 50 51 51 52 50 48 46 45 43 40
20 10 20 7 11 8 14 25 28 45 53 57 70 72 60 54 53 51 45 42 65 75 67 64 70 75 77 83 83 78 77 73 72 69 66 63 61 59 54 55 57 57 59 56 53 50 49 49 44
17 21 17 7 12 16 21 37 24 30 42 54 64 62 53 58 66 64 55 49 48 70 75 71 67 68 78 83 90 85 81 80 76 73 74 70 70 66 62 61 62 60 63 64 60 59 58 55 50
33 42 11 9 3 8 8 19 14 18 37 46 42 48 58 68 75 70 63 59 56 58 78 78 67 66 71 79 90 91 88 87 84 86 83 80 77 74 71 68 68 66 67 70 67 65 65 63 57
40 18 15 13 9 13 6 12 10 10 21 19 34 46 65 61 64 56 58 71 67 65 69 82 72 70 69 70 83 91 93 94 89 88 87 86 83 82 78 76 75 73 71 75 72 70 71 68 68
26 23 22 9 11 3 10 5 13 8 16 18 23 51 63 50 42 43 45 54 71 71 61 80 82 75 70 71 77 85 91 92 92 90 89 92 91 89 85 82 81 80 79 78 76 77 76 76 74
15 11 6 6 10 20 39 14 24 20 14 12 24 48 47 25 8 34 31 28 37 50 62 62 80 84 79 74 77 84 87 89 91 93 93 92 93 92 91 91 89 85 85 82 80 81 81 79 80
19 24 9 17 17 19 13 15 36 19 12 14 28 39 26 23 36 20 18 29 17 26 42 52 63 73 78 83 82 83 85 89 91 91 94 95 96 94 94 91 92 92 91 87 86 88 87 87 88
43 32 11 16 12 11 14 14 18 21 46 64 60 37 29 13 33 38 39 40 40 32 27 17 53 68 76 85 87 88 90 94 96 96 100 102 103 98 97 96 93 93 97 97 94 94 93 92 94
11 31 19 9 6 6 8 11 20 17 17 6 17 35 28 32 33 41 38 40 39 34 39 36 26 22 40 57 69 82 86 93 100 99 102 103 105 107 104 100 99 96 93 93 96 98 97 97 95
18 17 15 7 7 7 8 6 14 2 11 14 14 22 27 27 28 32 38 39 37 38 34 21 23 22 21 24 36 47 59 70 80 91 100 100 106 106 104 103 103 102 99 94 95 99 101 103 100
15 13 10 10 9 10 6 12 15 15 14 19 14 19 25 27 29 32 38 32 35 34 29 32 27 20 21 24 29 34 42 52 61 74 88 91 93 96 103 104 104 104 102 102 99 98 101 106 103
23 19 14 12 13 5 3 11 11 18 23 30 23 25 21 27 29 36 34 36 38 37 32 31 28 25 24 25 31 37 45 49 52 61 74 81 91 98 102 102 105 106 106 103 105 105 103 106 109
Wind_Direction_850mb
348 340 336 20 59 62 32 55 57 82 28 62 61 81 115 66 108 184 142 160 180 171 162 159 154 159 163 142 132 108 83 72 107 115 98 94 99 94 92 99 113 106 111 111 111 107 103 100 92
347 340 358 26 87 82 293 295 115 119 117 99 83 120 49 103 139 155 156 167 174 175 171 166 165 169 172 151 111 80 60 59 93 130 115 128 120 99 101 104 109 116 118 118 113 112 109 101 91
346 336 6 86 111 147 171 202 180 136 100 94 89 87 100 141 173 167 166 164 175 176 175 174 176 177 178 166 144 104 64 62 134 137 129 154 127 137 119 113 123 123 126 123 120 117 109 105 104
345 345 49 81 96 9 170 180 169 131 108 98 114 61 79 199 160 180 168 177 178 179 178 183 183 187 190 180 169 144 16 50 141 153 137 152 132 137 132 131 135 133 129 128 123 119 116 113 109
350 356 24 64 84 141 196 170 153 130 131 122 136 165 125 153 171 184 188 188 183 181 186 188 192 195 197 192 188 191 326 324 172 154 147 153 163 142 147 151 148 148 143 135 126 130 126 119 116
70 49 34 18 345 67 171 173 144 149 159 149 123 140 161 192 194 194 194 190 186 182 181 193 201 205 201 198 196 208 234 219 191 180 160 164 153 148 153 157 153 157 150 142 143 138 135 133 125
115 95 194 273 295 191 215 149 165 176 165 191 147 123 180 186 193 191 194 196 189 191 195 198 204 207 205 199 200 212 224 233 200 187 192 179 169 171 174 163 161 165 170 149 149 150 148 140 134
134 99 162 174 280 271 272 172 136 173 192 155 180 175 196 195 184 185 194 201 206 206 207 211 208 211 211 206 207 216 218 232 216 200 193 197 197 176 178 185 176 176 173 164 162 160 164 156 155
157 77 186 208 164 317 318 308 280 128 150 168 196 231 262 186 176 185 195 204 213 216 215 214 214 212 214 215 215 218 223 224 222 213 202 197 195 191 190 194 200 189 184 180 177 181 183 185 182
158 154 214 204 161 165 142 248 226 207 144 196 212 233 229 190 184 191 199 208 213 219 214 217 218 216 215 217 222 226 223 226 226 221 212 203 202 201 203 205 206 201 192 192 193 198 205 208 211
193 203 205 245 149 330 96 156 97 1 273 215 29 270 227 201 202 206 209 218 224 223 224 222 221 217 220 222 222 225 227 226 227 223 214 213 210 211 210 214 211 211 209 209 210 213 219 223 230
187 240 202 195 127 186 226 180 260 189 200 260 310 301 236 222 222 224 220 222 223 225 231 232 228 225 224 222 225 226 226 227 226 221 218 219 220 220 219 222 224 222 220 218 220 225 229 234 242
222 238 240 250 253 226 216 233 230 253 248 248 264 270 236 241 242 241 236 230 228 227 234 236 237 234 231 226 227 226 227 229 232 227 223 233 231 227 226 227 230 231 231 227 227 231 238 243 251
249 222 243 253 254 251 208 257 202 243 231 266 264 262 262 249 252 249 237 234 229 232 235 239 239 241 237 238 233 233 232 235 233 232 230 235 237 235 234 234 234 234 236 233 236 238 241 246 251
246 285 283 249 237 225 220 279 234 262 261 271 270 270 267 259 259 255 257 247 236 237 238 238 240 237 238 238 240 238 237 237 235 238 233 233 238 240 242 241 238 240 241 238 239 240 243 247 253
180 176 244 264 205 232 155 261 242 255 254 254 263 275 283 264 264 270 254 250 251 243 240 240 240 238 239 239 236 237 237 238 237 238 238 240 242 242 244 246 244 242 241 242 243 245 248 251 255
244 194 213 293 219 195 190 265 241 248 251 255 264 260 283 284 275 262 260 255 253 252 244 241 240 241 242 243 240 239 239 241 243 241 241 244 246 246 247 249 248 246 247 246 248 248 251 254 257
205 200 221 213 233 210 243 257 260 257 257 253 256 263 275 279 279 284 269 263 256 252 249 243 241 244 245 245 244 241 240 241 243 244 245 246 247 248 248 252 251 246 246 246 247 249 250 255 259
200 224 217 207 244 252 245 259 263 267 261 256 260 264 266 274 277 277 278 275 256 249 248 245 244 242 242 241 240 238 238 238 239 242 246 247 249 249 249 251 251 248 248 249 251 252 253 253 256
212 221 223 254 229 198 256 264 260 252 258 252 257 259 261 273 282 280 271 269 264 253 250 246 246 247 245 247 246 244 245 244 245 247 248 249 249 251 250 250 253 251 251 251 249 250 252 254 252
220 224 168 192 302 265 285 280 240 253 252 253 246 256 269 277 282 274 267 269 265 258 248 248 250 251 250 247 244 246 247 248 247 245 247 247 249 251 251 251 252 251 251 252 251 251 252 255 255
221 194 180 194 182 243 142 276 257 252 263 261 255 266 273 278 285 286 271 261 263 262 255 249 250 250 253 249 242 243 244 247 250 249 250 251 251 252 252 253 253 253 252 252 253 253 252 252 255
226 178 200 175 210 152 250 272 283 303 269 273 275 264 271 284 291 302 289 274 261 259 259 251 251 252 256 254 248 247 248 253 257 259 259 259 258 256 256 255 255 254 253 252 252 253 251 251 253
148 106 107 141 168 232 237 193 259 253 216 232 251 265 280 291 322 331 337 301 276 262 262 258 251 255 255 257 256 252 255 255 257 261 263 264 263 262 258 256 255 256 255 254 253 253 254 253 253
187 154 185 217 223 240 169 183 244 249 223 228 237 258 291 302 323 315 340 17 349 288 273 263 259 257 260 257 258 258 261 260 260 264 265 266 266 266 265 262 258 256 257 256 255 254 254 255 254
200 193 176 193 199 217 140 211 242 238 243 254 254 275 296 100 85 79 69 61 51 42 32 296 264 261 259 256 259 263 262 263 266 267 267 270 271 271 272 272 268 265 262 260 258 257 257 256 256
184 209 191 97 16 85 204 283 308 248 268 113 122 121 100 86 73 72 60 36 25 30 29 29 14 317 277 272 271 268 271 271 271 274 272 273 274 276 276 274 273 270 267 263 261 259 259 258 257
180 162 200 190 163 228 223 248 233 283 150 147 137 119 101 85 66 50 31 22 23 21 22 9 5 13 0 323 296 289 288 285 285 280 274 276 277 277 277 277 277 275 272 268 265 263 261 259 259
164 192 189 158 177 187 195 240 216 200 175 160 154 113 87 56 38 29 22 29 19 15 9 9 2 339 314 313 311 310 303 301 295 286 282 280 281 279 277 278 277 276 274 272 268 265 263 261 260
209 192 172 191 207 211 123 269 222 218 156 141 130 115 53 35 25 12 17 12 7 0 3 5 2 359 349 321 305 299 306 304 303 296 286 284 282 282 280 279 276 276 276 274 271 267 263 261 260